Location: *
(10.5081°N, 66.9194°W)
Time: 04:36:23
(UTC+00:00)

CZ-2D R/B - Pass Details

Date: 30 March 2020
Orbit: 523 x 537 km, 97.4° (Epoch: 24 May)

Event Time Altitude Azimuth Distance (km) Brightness Sun altitude
Rises 22:58:36 0° 151° (SSE) 2,664 6.5 -5.8°
Reaches altitude 10° 23:00:52 10° 141° (SE) 1,772 5.5 -6.3°
Maximum altitude 23:04:16 31° 78° (ENE) 936 4.0 -7.2°
Drops below altitude 10° 23:07:40 10° 14° (NNE) 1,764 5.8 -8.0°
Sets 23:09:55 0° 4° (N) 2,649 6.8 -8.5°
